Delta Virtual Airport Information Service

London Heathrow Airport

ICAO: EGLL Country: United Kingdom
Latitude: 51.4775 Longitude: -0.46138
Latest Arrival : SIA7394 (C) (EHAM-EGLL) Latest Departure : DLH925 (EGLL-EDDF)


WX CaptureLIVE
Data provided by noaa.gov | Fetched at 02:22:10

METAR : EGLL 300650Z AUTO 12005KT 070V160 9999 OVC007 07/06 Q1024 NOSIG

TAF : EGLL 300650Z AUTO 12005KT 070V160 9999 OVC007 07/06 Q1024 NOSIG


Runway Data for EGLL
Data provided by openaviationdata.com

Runway ID Mag Var Hdg Length Elevation Surface ILS Freq ILS Id ILS Slope
09L -1 90° 13160 ft 83 ft Asphalt 110.3 IAA 3
09R -1 91° 12396 ft 83 ft Asphalt 109.5 IBB 3
27L -1 271° 12396 ft 83 ft Asphalt 109.5 ILL 3
27R -1 270° 13160 ft 83 ft Asphalt 110.3 IRR 3

London Heathrow Airport, United Kingdom
Use only for reference purposes



Not for navigational purposes.